Location: Newark
(52.3500°N, 175.9667°E)
Time: 18:03:12
(UTC+00:00)

S-56A Canister/Altair - Pass Details

Date: 01 December 2021
Orbit: 634 x 2499 km, 38.9° (Epoch: 26 January)

Event Time Altitude Azimuth Distance (km) Brightness Sun altitude
Exits shadow 16:47:32 12° 171° (S) 1,999 9.7 -29.0°
Drops below altitude 10° 16:48:10 10° 163° (SSE) 2,109 9.9 -28.9°
Sets 16:51:12 0° 140° (SE) 2,932 11.1 -28.4°
